Location: La Brionne
(46.1728°N, 1.7849°E)
Time: 07:34:38
(UTC+00:00)

Iridium 2 - Pass Details

Date: 16 June 2021
Orbit: 502 x 511 km, 85.5° (Epoch: 02 August)

Event Time Altitude Azimuth Distance (km) Brightness Sun altitude
Exits shadow 23:23:09 40° 240° (WSW) 759 4.3 -20.1°
Maximum altitude 23:23:55 47° 278° (W) 679 4.3 -20.1°
Drops below altitude 10° 23:27:35 10° 353° (N) 1,729 7.6 -20.2°
Sets 23:29:46 0° 360° (N) 2,617 8.9 -20.2°
